Simultaneous Nadir Overpasses (SNOs) Predictions

Prediction of SNOs between GOES-15 and METOP-C Satellite Orbit:

Table of predicted SNOs for the next 14.0 days since TLE Epoch: 7/21/2024
Index Date Time (GOES-15) GOES-15 Lat,Lon METOP-C Lat,Lon Distance(km) Time Diff (sec)
1 07/22/2024 05:32:33 -0.02, 61.13 0.27, 59.86 145.11 80
2 07/23/2024 05:09:16 -0.06, 61.14 -0.88, 64.84 421.96 80
3 07/24/2024 17:30:57 0.01, 61.22 -0.18, 60.25 110.00 80
4 07/25/2024 17:07:39 0.05, 61.23 0.93, 65.25 457.36 80
5 07/27/2024 05:29:12 0.01, 61.17 0.10, 60.69 54.74 80
6 07/29/2024 17:27:34 -0.02, 61.27 -0.08, 61.10 20.44 80
7 08/01/2024 05:23:09 0.04, 61.23 -0.03, 61.52 33.28 80
8 08/02/2024 17:44:48 -0.09, 61.33 -1.09, 56.95 499.93 80
9 08/03/2024 17:21:30 -0.05, 61.35 0.10, 61.93 66.55 80
